Wind_Speed
15 14 14 13 12 12 13 14 14 14 14 15 17 18 19 19 20 19 21 22 22 23 24 22 22 22 21 20 18 18 19 19 18 49 32 32 33 34 31 30 35 40 42
13 13 13 12 12 12 13 13 13 13 14 16 17 17 18 18 18 19 19 19 20 21 20 20 20 20 20 19 20 20 22 21 24 31 37 36 34 34 34 30 32 37 42
11 11 11 11 11 12 13 13 13 14 14 14 15 16 16 15 15 18 18 18 17 17 17 18 19 20 22 22 22 21 22 23 23 28 39 37 39 35 37 36 35 35 38
9 9 10 11 11 12 12 12 13 13 13 14 14 13 13 12 15 17 17 17 17 17 17 18 20 20 23 24 24 25 23 25 25 27 33 37 36 35 35 33 34 34 35
7 9 10 10 11 11 11 11 11 11 10 10 12 13 13 11 16 19 19 19 18 19 18 19 19 22 22 25 27 28 28 28 29 29 31 34 33 32 29 31 36 36 39
7 9 10 9 9 9 8 9 10 10 11 12 13 13 13 10 18 20 21 20 19 20 22 24 24 26 29 31 30 30 31 35 35 32 35 32 38 35 36 34 34 32 17
7 8 7 7 7 8 9 9 10 11 11 11 11 12 12 13 19 21 24 21 22 23 26 28 30 29 35 34 35 37 37 35 36 41 41 40 42 38 40 40 36 36 36
7 4 5 6 6 7 7 8 9 10 10 11 12 13 14 13 20 22 25 23 25 27 28 29 32 35 33 36 43 43 41 41 40 40 40 46 45 47 43 45 47 46 43
3 3 4 4 4 5 6 8 10 11 10 11 11 11 13 15 19 23 28 28 29 29 29 30 32 32 34 42 44 45 48 45 44 44 45 48 51 51 52 49 41 34 22
0 1 2 3 3 5 8 9 9 9 10 10 11 11 12 16 20 25 28 28 27 31 32 31 28 32 41 44 45 42 42 44 47 51 52 50 47 43 42 42 42 33 27
0 1 2 3 3 5 7 7 8 8 8 9 10 12 15 18 22 23 24 26 29 33 32 32 33 38 44 45 43 39 38 48 48 45 42 42 38 37 33 35 39 36 35
1 1 1 3 5 5 5 5 6 8 8 11 14 16 17 18 19 20 23 26 31 31 31 34 37 45 43 42 39 38 41 42 36 37 37 38 37 36 34 36 42 41 44
2 0 1 3 3 4 5 6 5 8 10 12 15 17 19 20 20 21 24 29 29 30 31 34 39 39 37 34 35 37 37 34 34 35 34 35 37 39 36 34 31 29 28
2 1 2 3 3 4 5 8 9 9 10 13 15 18 20 21 21 22 28 30 27 30 31 31 31 30 29 31 32 33 33 33 34 35 36 39 38 34 32 27 23 18 12
3 2 3 4 5 6 8 8 8 7 8 13 15 18 21 22 23 28 29 30 31 31 33 27 25 26 29 31 33 33 35 36 36 36 37 36 35 32 28 22 17 14 9
3 3 4 4 6 7 9 10 11 10 12 12 12 16 20 20 25 28 28 28 31 29 25 23 24 25 25 28 30 34 32 34 36 39 37 35 33 30 26 22 15 12 8
5 5 4 5 6 8 11 14 20 19 16 13 14 19 20 24 27 29 29 32 27 24 19 21 22 24 25 27 28 31 33 34 37 34 35 35 33 29 24 20 16 11 6
6 5 5 6 7 10 12 12 12 13 21 30 28 28 24 26 27 27 28 32 28 20 19 21 22 23 25 27 28 31 33 34 33 35 35 34 32 28 23 19 16 11 5
8 7 7 8 9 11 13 13 12 13 15 18 24 27 28 29 27 22 27 22 24 25 24 23 22 23 24 26 28 29 31 32 34 33 32 33 32 30 23 18 15 9 4
9 9 9 9 11 13 13 14 14 15 16 17 19 22 28 27 26 26 24 23 24 25 25 25 25 24 25 26 27 28 30 31 31 31 32 32 31 29 24 20 14 10 7
10 11 10 11 13 14 14 15 16 17 18 19 22 25 23 26 26 24 25 24 24 26 27 27 28 27 26 27 27 27 28 29 29 29 30 30 31 29 25 19 14 9 4
12 12 12 13 14 15 16 17 17 18 20 22 25 25 24 23 22 24 25 25 25 26 27 27 28 29 28 28 28 29 29 29 29 29 29 29 30 28 25 19 14 9 4
14 13 13 13 14 16 17 17 19 20 22 22 23 25 24 24 25 25 26 27 28 27 27 27 28 30 29 30 29 27 28 29 30 30 30 29 29 27 24 20 15 10 5
14 13 13 14 15 16 17 19 21 22 24 23 23 23 25 27 27 28 29 28 29 29 29 28 28 30 33 35 31 30 30 30 30 31 30 28 26 25 22 18 14 10 5
14 13 14 15 16 18 20 21 21 22 22 22 23 24 26 27 28 28 29 29 29 31 31 30 32 33 33 34 35 33 29 27 26 27 31 25 20 21 18 17 13 9 5
13 14 15 15 17 18 20 22 23 23 23 23 23 24 26 28 29 29 30 30 30 32 35 36 35 35 35 35 34 30 28 27 26 24 27 21 20 17 15 13 11 8 5
Wind_Direction
90 89 85 78 66 55 45 35 27 18 13 8 7 7 5 5 6 6 2 357 357 352 351 347 340 339 335 326 324 317 308 300 288 292 299 306 305 301 295 288 284 279 276
83 81 74 67 58 49 40 33 26 18 15 13 11 10 9 8 9 5 360 356 352 349 346 342 340 336 329 329 326 318 311 304 297 294 304 307 304 303 300 292 286 283 282
84 75 68 58 51 45 38 30 23 21 18 18 16 13 7 7 10 4 358 350 345 344 339 339 334 331 330 325 326 321 316 310 306 298 298 301 298 300 298 291 285 279 280
81 73 63 54 46 39 33 30 27 25 18 20 18 11 6 10 7 1 351 346 344 341 336 333 327 323 319 323 322 318 317 311 305 298 295 297 297 299 294 291 285 281 275
78 70 57 47 42 33 30 30 25 27 23 18 17 12 11 16 4 357 350 345 343 336 333 327 321 319 325 323 322 322 321 316 309 303 296 294 293 294 290 291 287 284 275
71 56 48 42 38 32 28 28 25 23 19 15 14 13 7 4 360 355 352 343 338 335 330 328 330 333 331 327 325 323 316 312 306 299 293 291 292 291 291 287 286 287 285
76 52 41 37 31 28 28 22 18 14 13 10 12 5 358 358 356 353 349 344 337 334 334 335 333 332 329 325 323 319 314 307 300 296 291 288 289 290 292 289 283 279 275
62 44 35 36 26 24 18 13 12 9 4 358 1 359 354 347 350 351 346 343 339 338 335 334 329 327 326 326 322 317 314 309 303 298 291 288 286 288 284 282 283 282 278
62 28 28 27 24 10 6 11 10 7 357 359 352 345 346 342 346 351 351 346 341 336 330 327 326 325 325 325 322 318 313 310 309 305 300 295 292 290 286 280 276 277 273
193 23 20 14 7 2 10 12 5 360 350 341 339 343 338 339 349 352 351 342 331 329 328 328 327 325 324 324 322 317 314 313 314 312 306 300 296 290 286 276 273 271 271
162 36 12 8 14 6 11 9 358 346 332 330 335 341 347 351 348 345 342 337 333 329 326 326 326 326 325 323 321 320 314 316 314 309 304 304 302 296 295 291 276 264 273
150 157 25 14 14 1 359 349 344 339 334 345 348 347 346 342 335 333 335 333 333 326 325 323 323 324 324 322 322 321 320 319 313 312 308 307 307 308 308 308 304 296 287
185 260 2 356 343 351 351 347 343 350 352 348 346 340 335 332 328 328 332 330 329 325 323 321 320 322 323 323 324 325 324 322 318 316 309 306 310 308 306 307 303 297 295
222 274 321 318 330 346 356 355 353 348 346 344 339 332 324 323 325 329 329 328 324 326 325 320 321 322 323 324 327 328 326 323 319 315 311 312 312 313 311 307 301 304 306
237 272 294 307 338 344 345 344 336 329 337 331 325 319 317 317 320 322 323 322 327 326 325 323 328 330 329 329 327 327 326 325 325 323 317 315 318 317 314 311 305 306 305
238 259 287 312 328 332 328 325 332 332 326 315 313 318 316 312 317 320 323 324 326 327 327 328 325 324 322 323 323 323 324 323 324 324 320 321 322 322 318 315 309 308 311
239 257 284 312 317 324 334 339 331 326 325 320 325 330 328 322 322 324 325 326 325 328 326 321 319 320 320 321 320 320 319 322 322 324 324 324 326 325 323 319 318 315 320
260 269 278 290 308 322 324 318 314 312 319 325 332 335 333 329 326 324 324 325 328 330 320 318 316 317 317 318 319 318 319 322 325 325 327 328 330 329 326 326 323 319 316
250 259 274 289 303 308 310 310 305 303 304 307 317 326 331 329 325 320 325 324 317 315 316 314 313 311 313 315 315 315 317 319 321 325 326 330 330 332 327 327 323 321 314
251 257 269 285 296 303 306 306 308 307 307 308 310 316 323 329 322 319 321 317 310 306 309 310 311 310 312 313 314 315 317 319 323 325 326 327 329 330 329 327 325 319 322
251 256 268 283 293 297 302 306 307 307 307 307 308 315 317 315 308 309 310 309 304 305 308 310 310 309 310 312 314 313 314 315 318 320 322 324 327 327 328 326 324 320 315
244 251 265 278 289 297 301 305 308 309 309 309 312 313 316 313 309 306 306 304 303 303 305 306 306 306 306 309 311 310 310 311 316 318 318 320 324 325 326 324 322 320 314
246 257 271 284 291 298 304 308 309 310 311 311 310 311 316 313 310 306 304 305 306 306 307 307 305 304 305 305 306 303 304 306 309 313 311 313 317 321 322 321 320 313 305
253 265 276 287 294 301 305 309 313 314 314 312 311 311 311 311 308 305 305 305 306 308 309 307 303 302 303 308 306 301 301 304 309 311 311 306 307 316 319 318 317 313 304
260 270 283 292 298 305 310 313 313 314 312 310 310 310 311 309 306 306 307 307 307 309 310 307 305 308 311 313 316 316 310 308 311 313 311 301 304 315 314 314 312 308 296
266 277 285 293 300 305 308 310 311 311 310 310 310 310 310 310 308 309 312 312 312 311 311 313 315 317 319 320 321 322 317 306 304 310 313 309 312 312 314 313 312 302 286
Height
879 878 878 879 880 879 878 874 872 871 870 868 863 859 856 854 850 848 847 845 842 839 836 834 832 827 822 821 813 810 804 799 791 755 768 763 758 756 750 746 742 738 733
882 881 880 880 879 878 877 876 874 873 870 866 863 860 857 853 850 850 847 845 843 840 836 833 829 828 827 822 815 809 804 798 791 773 762 758 757 753 745 740 738 733 727
882 882 882 883 881 878 877 876 874 871 870 867 864 862 860 857 853 849 848 847 844 840 837 832 831 828 822 821 813 808 803 794 788 779 759 759 752 749 740 735 729 724 720
883 884 884 881 880 878 876 874 872 871 871 867 864 863 861 856 854 851 849 845 842 839 836 831 829 827 824 814 808 802 795 789 782 775 764 754 748 741 737 728 718 717 708
886 883 882 881 878 879 877 874 874 872 869 868 864 862 858 854 854 850 849 842 838 837 833 830 827 823 814 811 804 793 788 783 777 769 760 750 740 734 730 723 714 706 697
885 884 882 881 880 880 879 876 874 871 868 866 863 860 858 857 852 850 845 842 838 835 832 827 820 812 807 804 797 788 786 780 774 768 756 746 733 731 723 717 710 702 685
884 882 884 883 883 881 878 876 874 870 867 866 861 859 859 855 852 848 844 840 836 832 827 818 813 806 802 796 789 782 778 775 772 763 749 741 727 724 717 707 701 694 683
881 885 883 881 882 880 879 877 871 868 868 866 861 860 857 856 852 846 841 835 831 825 822 815 810 802 799 794 784 774 769 764 758 752 743 730 722 711 709 701 691 682 673
884 884 881 881 881 881 878 874 870 868 868 863 862 859 857 855 849 843 836 830 826 822 820 814 808 801 796 790 781 769 758 750 745 738 729 719 710 702 694 688 678 672 658
883 881 881 880 881 878 874 871 870 868 866 865 863 859 856 851 843 839 834 831 827 822 815 807 803 799 792 785 777 767 753 744 734 722 713 703 695 686 680 674 667 658 649
880 879 880 880 878 875 872 871 870 868 867 864 860 856 851 845 841 839 838 833 826 817 810 802 797 793 786 779 772 763 753 742 729 719 705 692 684 676 668 661 653 645 638
879 879 878 875 873 872 871 871 869 867 864 859 854 850 846 843 841 839 836 832 824 818 808 800 791 786 779 771 763 757 749 739 727 715 703 689 678 668 661 654 646 638 631
876 875 874 873 873 872 871 869 866 862 858 855 852 850 847 844 840 836 830 826 821 815 807 798 790 781 773 764 758 751 743 734 724 712 700 688 677 665 655 647 638 631 623
873 873 873 873 871 869 867 865 863 860 858 856 852 849 847 843 838 832 827 821 816 809 802 793 785 778 770 763 752 746 739 732 724 712 698 685 673 661 652 645 637 630 625
872 871 871 871 868 866 863 861 859 857 856 854 852 849 845 839 835 831 825 818 812 805 795 787 779 772 765 757 749 744 736 727 719 709 696 682 670 659 650 643 637 631 627
870 870 868 866 863 861 860 858 856 854 852 851 850 847 841 836 831 826 820 814 807 799 791 785 777 772 766 758 750 741 735 727 718 706 694 682 669 659 650 643 638 633 629
867 866 864 863 862 860 858 854 850 847 845 844 843 839 835 831 825 819 813 807 800 793 789 784 778 771 763 758 751 743 733 726 717 707 696 682 671 660 652 645 640 636 632
864 863 861 860 858 857 855 853 851 849 843 836 833 831 827 824 819 814 808 799 792 789 786 781 774 768 761 755 749 741 732 723 715 705 695 684 672 662 653 648 643 639 637
860 859 858 857 856 854 853 851 850 847 843 838 832 827 823 819 813 810 805 799 791 785 780 775 770 764 758 752 746 739 732 723 715 705 695 685 675 665 656 651 646 643 640
856 855 855 854 853 852 851 849 846 843 839 835 830 825 818 813 808 803 800 795 790 783 776 770 763 759 753 748 742 736 729 721 713 704 696 687 678 669 660 653 649 646 643
852 851 851 851 850 848 846 844 841 837 833 829 824 820 818 813 806 800 795 790 785 779 772 765 759 754 749 743 738 732 727 719 712 705 697 689 680 671 663 657 652 649 646
847 847 847 846 845 843 841 838 834 830 826 822 817 813 810 805 801 795 790 785 780 774 768 761 755 749 744 739 734 729 723 716 709 703 696 689 681 673 665 659 654 651 649
842 842 842 842 840 838 835 832 829 825 821 817 812 807 803 799 794 789 784 779 773 767 762 756 750 744 739 734 730 725 719 713 707 701 694 688 681 674 667 661 656 653 651
839 839 838 837 835 833 830 826 823 820 815 811 807 803 798 793 788 783 777 771 766 761 755 749 745 739 733 727 722 717 713 707 702 697 692 686 680 673 667 662 657 654 653
835 834 833 832 829 827 824 821 817 814 811 807 802 797 793 788 782 776 771 765 759 753 747 742 737 731 725 720 714 708 703 700 696 692 686 682 678 673 667 662 658 655 654
831 829 828 826 824 821 818 815 812 809 805 802 797 792 787 782 777 770 764 759 753 747 741 734 728 723 718 712 706 701 696 692 689 686 682 678 675 671 666 662 658 656 654